Theta_e
319 322 319 316 317 315 314 315 315 317 319 317 316 315 315 319 316 312 320 324 317 313 317 318 317 315 314 313 314 315 314 314 315 313 313 312 310 309 307 306 305 305 304 302 300 299 299 299 300 300 301 302 303 304 305 305 306 306 306 306 305 305 305 305 305 304 302 301 301 300 299 297 295 295 294 293 293 293 292 292 292 291 291 290 290 290 290
316 318 316 315 317 316 315 315 314 315 316 316 316 314 314 315 315 313 316 319 316 313 314 315 314 313 310 308 310 313 315 317 316 315 315 314 311 309 308 306 304 304 304 302 300 299 298 298 298 299 300 300 301 302 303 303 304 304 304 304 304 303 304 303 302 301 300 300 299 297 296 295 294 293 293 293 292 292 292 291 291 290 290 290 289 289 289
314 315 317 316 315 316 315 315 315 314 314 315 315 314 314 314 314 313 315 317 314 313 315 314 313 313 310 309 313 315 314 316 315 314 314 313 311 309 307 306 305 304 304 302 299 298 298 298 298 299 299 300 300 301 302 302 303 302 302 302 302 302 301 301 300 299 298 297 296 295 294 294 293 292 292 292 292 291 291 290 290 290 289 289 289 289 289
314 314 319 317 314 314 315 315 314 313 314 314 314 314 314 314 314 314 315 315 311 313 318 316 314 314 311 312 316 313 312 315 316 318 317 313 311 310 308 307 306 305 305 303 300 299 298 298 298 299 300 300 300 301 301 301 301 301 301 301 300 299 299 298 297 297 296 295 294 294 293 293 292 292 291 291 291 291 290 290 289 289 289 289 289 288 288
315 314 317 317 314 314 314 314 313 312 313 313 313 314 314 313 314 314 314 313 313 316 320 316 314 314 313 315 316 312 313 316 315 317 318 315 311 310 309 308 306 305 305 303 301 300 299 299 299 300 301 300 300 300 300 300 299 299 299 299 298 297 296 296 295 295 295 294 293 293 292 292 291 291 291 291 291 290 290 289 289 289 289 289 288 288 287
317 314 314 317 317 315 315 316 315 313 312 312 313 313 313 312 312 312 312 313 316 318 317 314 313 314 314 313 312 311 313 318 317 317 315 312 311 310 309 308 307 305 303 302 301 301 300 299 300 300 301 300 300 300 299 299 299 298 297 297 296 295 295 294 294 294 293 293 293 292 291 291 291 291 291 290 290 289 289 289 289 289 288 288 288 287 287
318 314 315 317 316 314 316 318 317 312 311 312 312 312 312 311 311 312 311 313 315 316 315 313 312 313 313 313 313 313 313 316 320 321 317 312 310 311 310 309 307 305 302 302 301 301 300 300 300 299 299 300 299 299 298 298 297 297 296 295 294 294 294 293 293 293 293 292 292 291 290 290 290 290 290 290 289 289 289 288 288 288 288 287 287 287 287
317 315 316 317 316 315 318 317 314 312 312 313 312 312 312 311 311 312 311 310 312 313 313 312 313 315 314 314 316 317 314 314 315 318 318 314 312 312 311 309 307 304 303 303 302 302 301 300 299 299 299 299 298 297 297 296 295 295 294 294 293 293 293 292 292 292 292 291 291 290 290 290 290 289 289 289 289 288 288 288 288 287 287 287 287 286 286
318 318 316 316 316 315 316 317 314 313 316 315 313 313 313 311 310 311 310 310 310 311 312 312 314 315 313 314 316 316 315 314 312 312 313 313 312 310 308 306 306 305 304 304 303 302 301 300 299 299 298 297 297 296 295 294 294 294 293 293 292 292 291 292 291 291 291 291 290 290 290 289 289 289 289 289 288 288 288 287 287 287 287 287 286 286 286
320 321 316 316 316 314 314 317 317 316 317 316 313 314 314 314 312 311 310 311 311 310 312 314 314 312 311 314 315 313 314 315 312 310 309 306 305 306 306 305 306 306 305 304 303 302 301 299 298 298 297 297 296 295 294 294 293 292 292 291 291 291 291 291 291 290 290 291 290 290 289 289 289 288 288 288 287 287 287 287 287 286 286 286 286 285 285
318 318 316 315 315 314 317 320 319 318 317 315 315 315 314 315 316 313 310 310 312 312 312 314 314 312 313 314 311 311 315 315 311 310 309 305 301 303 306 306 305 306 305 304 303 301 300 299 298 297 297 296 296 294 293 292 292 291 291 291 291 290 290 290 290 290 290 290 290 290 289 289 288 288 288 287 287 287 287 287 286 286 286 285 285 285 285
316 315 315 316 314 314 320 321 317 315 314 314 319 318 314 317 319 316 312 311 312 313 313 313 312 312 313 313 312 317 320 316 309 307 308 305 301 301 304 305 305 306 304 303 301 300 300 299 298 297 297 296 295 294 292 291 291 290 291 291 290 290 290 289 289 289 289 290 290 289 289 288 288 288 287 287 287 286 286 286 286 285 285 285 285 284 284
316 315 315 316 315 316 323 321 313 313 314 315 317 314 313 320 320 314 313 314 313 312 312 312 310 310 314 317 318 320 319 316 311 303 298 299 299 300 303 304 304 304 303 302 302 301 300 299 297 296 296 295 294 293 291 291 291 291 291 291 290 290 289 289 289 289 289 289 289 289 288 288 287 287 287 286 286 286 286 285 285 285 284 284 284 284 283
317 316 315 316 316 317 321 315 309 312 314 315 317 316 316 323 323 315 313 314 312 311 312 311 309 311 320 322 321 320 318 318 316 305 296 296 298 298 300 302 302 302 301 300 300 299 298 298 297 296 296 294 293 292 291 291 291 290 290 290 289 289 288 288 288 288 288 288 288 288 287 287 287 286 286 286 286 285 285 285 284 284 284 283 283 283 283
318 317 314 316 316 314 315 312 309 311 314 319 327 324 315 317 322 319 315 314 313 313 315 314 311 313 319 320 321 321 316 312 310 303 297 298 298 295 297 299 299 299 299 297 297 297 296 297 296 295 295 294 293 292 291 290 290 290 290 289 288 288 287 287 287 288 288 288 287 287 287 287 287 286 285 285 285 285 284 284 284 284 283 283 283 283 282
317 316 314 315 315 312 311 313 313 311 314 325 335 327 316 317 319 317 320 321 316 314 319 318 313 313 317 318 321 323 318 311 308 302 295 293 293 293 295 297 297 297 297 296 296 295 295 295 295 294 294 294 292 291 290 290 289 289 288 288 287 286 286 287 287 287 287 287 286 286 286 286 286 286 285 285 284 284 283 283 283 283 283 282 282 282 282
316 315 313 315 316 312 309 314 319 315 315 321 324 320 319 325 321 315 320 326 320 312 315 315 312 313 315 316 320 322 320 314 308 301 294 291 291 293 294 294 295 296 296 295 294 293 293 294 294 293 294 293 292 290 290 289 289 288 287 286 286 286 286 286 286 286 286 285 285 285 285 285 286 286 285 284 284 283 283 283 283 283 282 282 282 283 282
313 313 313 314 314 312 309 312 316 317 316 317 317 315 315 322 323 318 319 326 325 314 310 313 316 316 314 316 317 315 314 310 301 295 292 290 290 292 292 293 294 295 294 294 293 292 292 292 293 293 293 293 292 290 289 289 288 288 287 286 286 286 285 285 285 285 285 284 284 284 284 284 285 285 285 284 283 283 282 282 282 282 282 282 282 282 281
312 313 315 314 313 312 312 313 311 311 312 313 315 318 317 317 320 318 314 315 315 310 308 313 318 314 310 314 316 310 307 306 299 295 293 290 289 291 292 292 293 293 293 292 291 290 291 291 291 292 291 291 291 290 289 288 287 287 287 286 285 285 284 284 284 284 284 284 284 284 284 284 284 284 284 283 283 283 282 282 282 282 282 282 281 281 280
312 311 311 311 311 311 311 313 313 314 316 315 312 311 310 309 310 308 305 305 307 306 307 309 312 310 307 309 312 308 304 301 297 294 291 287 287 289 290 291 292 292 291 290 289 289 289 289 290 290 290 290 290 289 289 288 287 287 286 285 284 284 284 284 283 283 284 284 284 284 283 283 283 283 283 282 282 282 282 282 283 282 282 281 281 280 279
311 310 307 308 311 311 310 313 318 317 316 314 310 305 303 306 309 307 304 302 302 305 306 305 308 312 309 304 304 304 301 298 295 292 288 287 287 288 288 289 291 291 290 289 289 288 288 288 289 289 289 289 289 289 288 288 287 286 285 284 283 283 283 283 283 282 282 283 283 283 283 282 282 282 282 281 281 281 281 281 282 282 282 281 280 279 278
312 311 310 310 314 314 311 313 317 314 307 307 310 308 307 308 309 309 309 306 301 300 300 299 304 313 310 301 299 301 300 296 293 289 286 286 287 286 287 288 288 289 289 289 288 288 287 287 288 288 288 287 287 287 287 287 286 285 284 283 282 282 281 282 282 282 282 282 282 282 282 282 281 280 280 279 279 280 280 280 280 281 281 280 279 278 277
312 311 311 311 312 315 312 310 313 310 304 305 311 312 310 309 307 306 310 311 307 304 300 293 296 308 310 300 298 302 299 292 289 288 287 287 286 285 286 287 286 287 287 287 287 287 287 287 287 286 286 286 286 286 286 286 285 285 284 282 281 281 281 281 281 282 282 282 282 281 281 281 281 280 278 277 277 277 279 279 279 279 278 277 276 276 276
311 311 311 309 312 316 314 311 312 306 300 304 310 309 306 306 304 303 305 307 306 307 305 295 291 298 302 296 295 300 297 289 287 288 288 286 286 286 285 286 286 286 286 286 286 286 286 286 285 285 285 285 285 285 285 285 284 284 283 282 282 281 281 281 281 281 281 281 282 281 281 280 280 279 278 277 275 275 276 277 277 276 275 275 275 275 276
312 311 307 305 310 312 305 302 303 299 297 302 307 305 302 302 300 300 304 305 301 300 305 303 294 292 293 290 289 293 292 287 286 288 287 286 286 285 284 285 286 286 286 286 286 285 285 285 285 284 284 284 284 284 284 284 283 283 282 282 282 282 281 281 280 280 281 281 281 281 281 280 280 279 279 278 277 276 275 275 275 274 273 273 274 275 276
305 303 300 299 300 299 298 301 303 299 297 298 301 300 297 294 293 295 297 297 292 291 296 300 295 291 290 289 288 288 287 285 286 288 286 285 285 284 285 286 286 285 285 285 284 284 285 285 284 284 284 284 284 284 284 283 282 282 282 281 281 282 282 282 282 282 281 281 281 281 281 280 280 279 279 279 279 278 276 274 273 273 273 273 275 275 275
297 299 303 306 303 299 300 306 306 301 296 296 300 299 291 285 286 288 288 287 287 286 288 290 291 290 289 289 289 288 286 285 285 286 285 285 284 285 286 286 286 285 284 284 284 284 283 283 283 283 283 284 284 284 283 283 282 281 281 280 280 281 281 281 282 283 282 281 281 280 280 280 280 279 279 279 279 279 278 276 275 274 274 274 275 275 274
298 300 306 311 311 305 301 299 297 296 294 293 294 292 287 286 290 294 295 293 290 288 287 288 289 290 290 288 287 285 284 284 283 283 284 285 285 285 286 285 284 284 283 283 283 282 281 282 282 282 283 283 283 283 282 282 281 280 280 280 279 279 280 280 280 281 281 280 280 280 280 279 279 279 279 279 279 278 278 277 276 275 274 274 274 274 274
299 300 302 304 303 300 296 294 294 295 293 290 288 288 290 295 299 300 300 297 292 291 291 289 288 288 288 287 286 284 282 283 283 283 284 285 284 284 284 284 283 283 282 282 282 281 281 281 281 282 283 283 283 282 282 281 280 280 279 279 279 279 279 279 279 278 278 278 278 278 278 279 279 278 278 278 278 277 277 276 276 275 275 274 274 274 274
296 296 297 296 294 295 296 295 295 296 294 293 293 293 295 299 301 300 298 295 295 296 291 285 284 287 286 286 287 286 285 286 286 286 285 284 284 284 284 283 282 280 280 281 281 281 281 281 281 281 283 282 282 282 281 280 280 279 278 278 278 278 278 278 278 278 277 277 277 277 277 277 277 277 277 277 277 276 276 275 275 274 274 274 274 274 274
293 293 295 294 294 296 297 295 294 294 293 293 295 296 296 298 300 299 298 297 298 295 288 282 283 285 285 285 286 286 286 287 287 286 285 284 283 283 283 283 283 281 281 282 283 282 281 281 281 281 282 281 280 280 280 279 279 278 277 277 277 277 277 277 277 277 277 277 276 276 276 276 276 276 276 276 276 275 275 274 274 274 274 273 273 274 274
294 294 294 294 295 296 295 293 294 294 293 293 297 300 299 299 299 299 298 298 295 289 286 287 287 285 284 285 285 284 285 285 284 284 284 283 283 283 283 283 283 283 283 283 284 283 282 282 282 282 281 279 279 279 279 279 278 277 277 277 277 276 276 276 276 276 276 275 275 275 275 275 275 275 275 275 275 275 275 275 275 275 274 274 274 274 273
297 297 296 295 296 296 294 292 294 296 295 294 297 299 298 297 298 297 294 291 288 285 285 287 287 284 283 284 284 283 283 284 283 283 283 283 283 283 283 283 283 282 282 282 282 282 282 283 283 282 280 279 279 279 279 279 278 277 277 276 276 275 275 274 274 274 274 274 274 275 275 275 274 274 274 275 275 275 275 275 275 275 274 274 274 273 272
299 299 297 296 296 297 296 295 294 295 295 293 292 293 292 291 290 288 285 284 286 287 286 284 284 284 284 284 284 283 283 286 288 286 283 284 285 284 283 282 282 281 281 282 281 282 283 282 281 280 279 279 278 278 278 278 278 277 276 275 275 274 273 273 273 273 273 273 274 273 273 273 273 274 274 274 274 275 274 274 274 274 274 273 273 271 271
299 298 297 296 297 297 298 298 298 298 298 297 295 293 289 284 283 283 283 282 285 286 285 283 284 284 283 282 282 281 281 285 287 284 282 283 284 283 281 281 281 280 281 282 283 283 282 281 279 279 278 278 278 278 278 278 278 277 276 275 274 273 273 272 272 272 272 273 272 272 272 272 273 272 273 273 273 273 273 273 273 273 273 272 271 270 269
295 298 297 294 293 295 297 296 295 296 298 298 296 293 287 281 279 280 281 281 283 284 283 283 284 283 281 281 281 280 280 281 281 280 281 281 281 281 280 280 280 279 279 280 283 284 282 281 280 279 278 277 277 277 277 277 276 276 275 274 273 272 271 271 271 271 271 271 271 271 272 272 272 272 272 272 272 272 272 272 272 272 271 271 270 269 268
285 290 293 289 286 288 289 286 283 285 287 286 285 284 282 277 276 279 281 281 282 282 282 283 283 282 281 281 281 280 280 280 279 280 280 280 279 279 279 278 278 276 274 276 280 283 282 281 281 279 277 277 277 277 276 276 276 275 274 272 271 271 270 270 270 271 271 271 271 271 271 271 271 271 271 271 271 271 272 272 272 271 271 270 269 268 268
277 277 280 280 278 278 277 275 275 277 280 278 275 273 273 273 275 277 279 278 278 279 280 281 281 280 280 280 280 279 279 279 279 279 279 278 278 278 277 277 277 276 274 276 280 281 280 280 280 279 278 278 277 276 276 275 275 274 273 272 271 270 270 270 270 270 270 270 270 271 271 271 270 270 270 270 270 271 271 271 271 271 270 269 268 268 268
277 274 273 273 273 271 271 270 270 271 274 274 271 268 270 273 274 275 276 275 275 276 277 278 278 279 278 278 278 278 278 278 278 278 277 277 276 276 276 277 278 277 277 278 278 278 278 278 277 277 277 278 277 276 275 274 273 272 271 271 270 269 269 269 269 269 269 270 269 270 270 269 269 269 269 269 269 269 270 270 270 270 269 269 268 268 268
276 273 270 270 271 269 268 267 266 265 267 269 268 266 268 271 273 273 273 273 272 273 274 276 276 276 276 275 275 275 275 275 275 276 276 276 275 274 275 276 278 278 277 277 277 277 277 276 275 275 275 275 275 275 275 274 273 272 270 270 269 268 268 268 268 268 269 269 269 269 269 268 268 268 268 268 268 269 269 269 269 268 268 268 268 268 268
270 267 265 266 266 265 265 265 265 265 265 266 266 265 266 269 270 269 269 269 270 271 272 273 273 273 272 272 272 273 273 274 275 275 274 274 274 272 272 274 276 277 276 276 276 276 276 275 274 274 274 273 273 273 273 273 272 271 270 269 269 268 267 267 267 267 268 268 268 268 268 268 267 267 267 267 268 268 268 268 268 267 267 268 268 268 268
265 264 264 264 263 262 263 264 264 264 264 264 264 265 265 266 267 267 266 267 269 270 270 270 270 271 270 271 271 272 273 273 274 273 273 273 273 272 272 274 276 275 275 275 275 274 274 274 274 274 273 273 272 272 272 271 271 270 269 269 268 267 267 266 266 267 267 267 268 268 268 268 268 267 267 267 267 267 268 268 267 267 267 268 268 268 268
262 262 264 263 261 261 261 262 263 264 264 263 263 264 264 265 265 265 265 266 267 267 267 268 269 269 269 269 269 270 271 271 271 271 271 272 273 273 273 274 274 274 274 274 273 272 272 272 272 272 272 272 272 271 271 270 270 269 269 268 268 267 266 266 266 266 266 266 267 267 268 267 267 267 267 268 268 268 268 268 268 268 268 268 268 268 268
259 259 260 260 260 260 261 261 262 263 262 262 262 263 264 264 264 264 264 264 264 264 265 266 266 267 267 267 266 267 267 267 268 268 268 269 272 273 272 272 272 272 272 272 271 271 271 271 270 271 271 270 270 270 270 269 268 268 268 267 267 266 265 265 265 265 265 266 266 267 267 267 268 268 268 269 269 269 269 269 268 268 268 268 268 267 267
258 259 259 259 259 260 260 260 260 261 261 261 262 262 262 263 263 263 262 262 263 263 263 263 264 265 265 264 265 265 265 266 266 266 266 268 271 272 271 270 270 270 270 270 270 270 270 270 270 270 270 269 269 269 269 268 268 267 267 267 266 266 265 265 265 265 265 265 266 267 267 268 268 268 269 269 269 269 268 268 268 268 268 267 267 267 266
258 258 258 258 258 259 259 260 260 260 261 262 262 262 261 261 262 262 262 261 262 262 262 262 263 263 263 263 264 265 266 267 268 268 267 268 269 269 268 268 268 268 268 268 268 268 269 269 269 269 269 269 268 268 267 267 267 266 266 266 265 265 264 264 264 264 264 265 266 267 267 267 267 268 268 267 267 267 267 267 267 267 267 267 267 266 266
257 257 257 258 258 258 259 260 260 260 260 262 263 262 260 260 260 261 261 261 261 261 262 262 263 263 263 263 263 263 263 264 266 268 268 267 266 266 265 266 266 266 266 267 267 267 267 268 268 268 268 268 267 266 266 266 266 265 265 265 264 264 264 264 264 264 264 265 265 266 266 266 266 267 267 266 266 267 267 267 267 267 266 266 266 266 266
256 256 257 257 257 258 258 259 259 258 258 259 260 259 258 258 259 260 260 260 260 261 261 262 262 263 263 262 262 262 261 261 262 265 267 266 265 265 265 265 265 265 266 265 265 266 266 266 266 267 267 266 266 265 265 265 264 264 264 264 264 263 263 263 263 263 264 264 265 265 266 266 266 266 266 266 266 266 266 266 266 266 266 266 266 266 266
256 256 256 256 257 257 257 257 257 257 257 257 257 257 257 257 258 258 259 259 259 259 260 260 261 262 262 262 262 262 261 261 261 263 264 264 263 263 264 263 264 264 264 264 264 264 264 264 264 265 265 265 265 264 264 264 264 263 263 263 263 263 263 263 263 263 264 264 265 265 265 265 266 266 266 266 266 266 266 266 266 266 266 266 266 266 266
256 256 256 256 256 256 256 256 256 256 257 257 256 257 257 257 256 257 258 258 258 257 258 258 259 261 261 261 261 261 261 261 260 261 261 261 261 261 261 261 262 262 262 262 262 262 263 263 263 263 263 263 263 263 263 263 263 263 262 262 262 262 262 262 263 263 263 264 264 264 265 265 265 266 266 266 266 266 266 266 266 266 266 265 265 266 266
255 255 255 256 256 256 256 256 256 256 257 257 256 257 257 256 256 256 257 257 257 256 256 257 258 259 260 260 260 260 260 260 260 260 260 260 260 260 260 260 261 261 261 261 261 261 261 261 261 261 262 262 262 262 262 262 262 262 262 262 262 262 262 262 262 263 263 263 264 264 264 265 265 266 266 266 265 265 265 265 265 265 265 265 265 265 265
256 256 256 256 257 257 257 257 257 257 256 256 256 256 256 256 255 255 256 256 256 256 255 255 255 257 259 259 259 259 259 259 259 259 259 259 259 259 260 260 260 260 260 260 260 260 260 260 260 260 260 260 261 261 261 261 261 261 261 261 261 261 261 262 262 262 263 263 263 264 264 265 265 265 265 265 265 265 265 265 265 265 265 265 265 265 265
Wind_Speed
7 6 7 11 12 11 12 12 12 10 8 9 12 14 12 8 7 11 7 8 10 8 7 11 9 6 5 5 6 4 3 4 4 5 6 7 7 7 8 8 8 9 9 8 11 15 17 18 19 19 20 21 22 23 24 25 26 27 27 28 28 29 29 30 30 30 31 32 32 32 32 31 31 29 28 27 26 25 24 22 21 19 18 16 15 14 12
6 5 6 8 9 10 11 14 16 15 14 15 16 16 14 11 13 13 6 9 12 8 8 11 8 3 3 3 2 2 4 5 6 7 7 8 9 9 10 10 9 9 9 9 12 15 17 18 20 21 21 23 24 25 26 27 28 28 29 29 30 31 31 31 32 33 33 34 34 33 32 32 31 30 28 27 26 25 24 22 21 19 17 16 14 12 11
4 3 3 5 7 8 9 13 18 20 20 20 18 16 12 10 13 11 7 11 13 7 6 8 6 3 3 3 2 4 5 5 7 7 8 9 10 10 10 10 9 9 9 10 13 16 19 21 22 23 24 25 26 27 28 30 30 30 30 31 31 32 33 33 34 35 35 35 34 33 32 31 30 30 28 27 26 25 23 22 20 19 17 15 14 11 10
5 2 4 5 4 2 7 14 17 19 19 18 16 14 12 12 13 10 9 12 10 5 4 6 7 5 4 6 6 5 5 6 8 9 10 11 11 11 10 10 10 11 11 12 14 19 22 24 26 27 28 28 28 30 31 32 32 32 31 32 32 33 33 34 35 35 35 35 34 33 32 31 30 29 28 27 25 24 23 22 20 19 16 14 13 11 9
3 1 4 5 5 1 10 14 14 16 15 13 13 12 14 16 13 10 12 11 5 4 6 9 9 6 7 9 8 5 6 7 8 10 11 12 12 11 10 11 12 13 14 16 20 24 26 28 31 32 32 33 33 33 33 32 32 32 32 32 33 33 34 35 35 36 36 35 35 33 32 32 30 29 28 26 25 23 22 21 19 18 16 14 12 10 8
2 2 5 7 4 5 9 6 11 17 17 15 16 15 15 16 13 11 11 7 4 7 10 12 10 8 9 9 6 6 6 7 8 10 11 11 11 9 10 12 13 13 15 19 22 24 27 29 31 32 33 33 32 32 32 33 33 34 33 33 33 33 34 35 35 36 35 35 35 33 32 31 30 29 28 26 25 23 22 20 18 17 15 13 11 9 7
3 3 6 5 7 9 5 1 5 14 17 17 18 18 17 17 16 15 13 9 7 9 11 9 7 8 7 5 4 5 7 8 9 10 11 11 10 9 10 12 12 13 15 18 21 25 28 30 31 32 32 32 31 31 33 34 35 35 34 33 33 34 35 35 35 36 35 35 35 33 32 31 30 29 27 26 25 23 21 20 18 16 14 12 10 8 5
3 3 6 8 7 5 3 3 1 3 5 6 8 12 15 16 15 14 16 15 12 10 8 4 2 4 4 5 5 8 9 9 9 10 11 11 11 11 13 14 16 19 24 27 29 31 31 31 32 33 33 33 31 32 33 33 34 34 33 34 34 36 37 37 36 37 36 35 35 34 33 31 30 28 27 26 25 23 22 20 17 16 14 11 9 7 5
4 4 5 5 6 9 8 6 3 3 5 7 8 9 13 15 14 14 14 14 13 11 8 3 1 0 2 5 7 9 9 10 11 12 11 11 11 12 14 16 18 23 27 29 28 28 28 31 33 33 33 33 32 32 32 32 33 33 33 34 35 37 37 37 37 37 36 36 35 34 33 31 30 28 27 26 25 23 22 20 17 15 13 11 9 6 4
4 4 2 3 6 11 8 5 5 6 8 10 11 8 9 11 12 13 13 14 15 12 8 6 4 2 1 4 9 9 9 10 11 11 11 10 11 11 12 14 16 18 22 24 23 25 27 30 31 32 33 33 33 32 32 33 33 33 33 34 35 36 37 37 37 37 36 36 35 34 33 31 30 29 27 26 24 22 20 19 17 14 12 10 8 6 4
3 6 5 6 9 9 4 7 8 7 8 10 9 2 8 8 9 12 13 14 14 11 9 8 7 5 4 8 9 8 8 8 8 9 10 10 10 11 12 15 17 18 20 22 22 24 27 29 31 32 34 34 33 33 32 32 32 32 33 34 35 37 37 37 37 36 35 35 34 34 33 31 30 29 27 26 24 21 19 18 16 14 12 9 8 6 4
5 7 6 6 6 5 4 8 8 7 10 12 9 3 8 6 8 10 12 13 12 11 10 8 8 8 9 8 7 5 4 4 4 6 8 8 9 11 11 13 15 18 21 22 24 27 30 33 33 34 35 35 33 32 31 32 32 33 34 35 36 36 36 36 36 35 34 34 33 33 32 31 29 28 27 26 24 22 19 17 15 14 12 10 8 6 4
6 7 7 5 4 5 6 6 6 9 10 8 5 8 5 4 7 8 11 14 14 12 11 9 8 10 8 4 3 3 1 2 2 2 3 4 7 9 11 12 15 19 23 25 28 30 31 32 33 35 36 34 32 31 31 32 34 34 35 35 35 36 36 36 35 34 34 33 32 32 31 31 30 28 26 25 23 21 19 17 15 14 12 10 9 6 4
4 4 4 4 6 6 5 4 3 6 6 4 8 7 2 4 7 7 9 11 10 8 9 9 9 7 2 1 4 3 1 3 3 2 2 2 3 5 7 11 15 19 21 21 23 24 26 31 34 37 37 35 32 32 33 34 35 35 35 36 36 36 36 35 35 34 33 32 32 32 31 30 30 27 25 23 22 20 19 17 16 15 13 11 9 7 5
3 3 4 4 7 5 10 11 3 3 5 7 7 2 3 2 6 6 7 7 6 7 7 9 10 6 2 3 5 3 3 3 2 1 0 3 4 5 6 9 14 17 17 17 18 20 24 29 33 36 37 34 32 32 32 33 34 34 35 36 36 36 35 35 34 33 33 32 32 32 31 30 29 27 25 23 21 20 19 18 16 15 13 11 10 8 6
4 6 8 7 4 7 12 12 8 9 8 5 4 5 3 3 3 5 5 6 6 8 8 8 8 6 4 4 5 4 4 4 3 2 2 3 4 5 6 9 13 15 16 16 16 18 22 27 31 34 35 33 31 30 30 31 33 34 35 35 35 35 34 34 33 33 32 32 31 31 30 29 27 26 25 23 22 20 18 17 16 15 14 12 10 8 5
5 6 9 6 3 4 6 4 4 8 6 2 3 6 4 2 4 5 4 5 7 7 7 6 6 6 6 6 6 5 5 4 4 3 3 4 5 6 6 9 12 14 15 16 17 17 20 25 29 31 33 32 31 30 30 31 34 35 35 35 35 35 34 34 34 33 32 31 30 30 29 28 27 26 25 24 22 21 19 17 16 15 14 12 9 7 5
3 5 5 4 2 2 6 3 2 4 4 1 3 5 3 3 6 5 3 4 6 7 7 6 6 7 8 7 7 6 4 3 4 4 4 5 7 8 9 11 12 13 14 16 18 18 19 23 27 29 31 31 31 30 31 32 34 36 36 36 36 35 35 35 34 33 32 31 30 29 28 27 26 25 25 24 22 21 19 18 16 15 13 11 9 7 6
3 5 4 6 4 6 8 4 4 3 3 2 3 4 3 4 5 4 4 3 4 6 7 7 7 7 7 8 7 6 4 4 4 4 4 5 7 9 11 13 15 16 17 17 18 20 21 23 26 28 28 28 29 30 31 33 35 36 37 37 36 35 35 34 33 33 32 32 31 30 29 27 25 24 23 22 22 21 20 19 17 15 12 11 9 9 8
6 4 3 2 0 2 4 3 3 4 5 5 3 2 2 2 3 2 1 2 4 5 5 5 5 5 6 7 7 5 4 4 4 4 5 7 8 9 12 14 16 17 18 18 19 20 21 23 25 26 27 27 28 30 32 34 35 36 36 36 36 35 35 34 34 33 32 32 32 31 29 27 26 24 23 22 21 20 18 17 15 14 13 11 10 10 10
2 2 1 2 3 3 3 6 8 7 5 5 4 2 3 4 4 4 3 2 3 5 4 4 4 4 5 5 5 5 5 4 4 5 6 8 9 10 12 14 15 16 17 17 18 19 20 22 24 25 26 26 27 30 32 35 36 37 36 35 34 34 34 34 34 33 32 32 31 31 29 27 25 23 21 21 20 18 16 14 12 11 11 12 11 11 10
5 5 6 7 5 2 7 11 11 8 5 6 6 4 5 4 4 5 4 4 3 3 2 3 5 5 5 4 4 5 5 4 5 7 8 9 9 10 11 13 13 13 13 14 16 17 17 20 23 24 25 25 26 28 32 34 36 37 36 34 33 33 34 34 33 33 32 32 31 30 29 28 26 22 20 18 17 16 15 13 11 10 10 11 11 10 9
10 10 12 12 7 4 7 10 9 7 6 7 7 7 6 5 4 4 5 4 3 3 3 1 4 4 4 5 6 5 4 5 7 9 10 11 11 11 12 13 12 11 11 12 15 16 18 20 22 23 23 24 25 28 31 34 35 36 36 35 33 33 33 34 34 34 34 33 32 30 29 28 27 25 22 18 14 13 13 12 11 10 10 10 10 10 8
9 8 11 12 7 3 5 7 8 7 6 7 7 6 5 5 4 4 5 5 4 2 2 2 0 3 4 5 6 5 4 6 8 10 11 11 11 12 13 13 13 13 13 14 16 17 18 20 21 22 23 24 26 28 30 33 34 35 35 35 34 34 35 35 34 34 33 33 32 31 30 29 28 26 25 22 17 14 14 13 11 11 11 11 11 10 9
5 3 5 6 5 4 3 4 5 5 5 5 5 5 5 6 5 5 6 5 4 5 5 3 1 2 4 6 7 6 6 7 9 11 11 10 10 12 14 14 15 16 15 15 16 16 17 20 21 22 23 25 26 28 30 32 34 34 35 35 35 35 36 35 34 34 34 33 34 33 33 31 30 28 28 26 23 20 18 15 13 12 12 13 12 11 10
5 7 8 7 6 5 4 4 4 3 4 4 5 4 4 5 5 6 6 6 5 6 6 4 3 4 4 6 8 7 7 8 9 11 12 12 12 14 15 16 16 15 15 15 16 17 18 20 22 23 24 25 27 28 30 32 33 34 35 34 33 34 35 36 36 36 36 36 35 34 33 32 31 30 29 27 25 25 24 21 18 16 16 15 14 13 12
7 9 10 9 5 1 4 4 4 6 5 5 7 6 4 6 7 7 7 7 8 8 8 7 7 7 7 7 8 7 7 9 10 10 11 12 13 14 13 13 13 13 14 15 16 18 19 20 22 23 25 26 28 29 30 32 33 34 34 33 32 32 33 35 36 37 37 36 35 34 33 32 31 30 29 26 25 25 26 26 24 22 20 18 16 15 14
6 2 3 5 6 8 6 3 5 7 6 6 7 7 6 7 8 7 7 7 6 7 8 8 7 7 7 7 7 7 7 7 7 7 10 11 11 10 9 9 11 12 13 14 15 17 17 19 21 23 25 26 28 29 30 32 33 34 34 33 32 31 32 33 34 35 35 35 34 33 33 32 31 29 28 26 25 25 25 25 25 23 21 19 18 17 15
3 1 3 3 6 9 8 7 7 8 6 6 7 7 6 7 7 6 5 4 3 3 5 5 5 6 6 6 7 7 6 4 4 7 9 9 9 8 8 8 9 10 11 13 15 16 18 20 22 24 26 27 28 29 30 31 33 34 34 34 33 32 32 32 33 33 33 33 32 32 31 30 29 28 27 26 26 25 25 24 23 22 21 20 19 18 16
1 3 6 7 8 11 12 9 7 7 6 6 6 5 4 6 7 5 3 1 1 2 3 3 4 6 5 5 6 5 4 4 5 7 8 8 8 8 8 9 9 9 11 14 17 18 19 21 23 25 27 27 28 29 30 31 33 34 33 33 33 32 31 31 32 33 33 33 32 31 30 29 29 28 28 27 26 26 26 25 24 23 22 21 20 20 18
5 7 9 9 9 10 11 8 7 6 5 5 6 5 4 6 7 6 4 2 2 2 2 3 4 4 4 5 6 5 3 3 4 6 7 7 7 8 10 11 10 10 11 14 16 18 20 21 24 25 26 25 26 28 29 31 32 33 33 32 32 31 31 31 32 32 33 33 32 31 31 30 30 29 28 28 28 28 27 26 25 24 23 22 22 21 19
11 9 9 8 8 8 8 6 6 6 5 4 5 5 5 5 6 6 5 4 3 3 3 3 3 3 5 7 6 5 5 5 5 5 5 6 7 8 10 12 12 11 11 11 12 14 17 21 23 24 24 24 25 26 28 30 32 33 34 34 33 32 31 31 31 32 33 32 32 33 33 32 32 31 30 30 30 30 29 28 27 26 25 24 23 21 19
14 10 6 6 7 8 7 6 6 7 7 5 5 5 4 3 4 4 4 4 4 3 3 3 3 4 6 7 7 6 6 4 3 4 6 7 8 9 10 11 12 13 13 13 13 14 17 19 21 21 21 22 24 25 27 30 32 34 34 34 33 32 31 31 32 32 32 32 33 34 34 34 33 32 32 32 31 31 30 30 28 27 26 25 23 20 19
10 9 8 8 7 7 7 7 6 6 6 4 2 3 3 3 3 4 4 5 4 3 3 5 6 6 7 8 7 7 6 4 2 4 6 7 7 8 9 10 12 14 14 15 16 17 18 18 18 19 20 21 22 24 26 28 31 34 34 33 33 32 31 31 31 32 33 34 34 33 33 33 34 34 33 32 31 31 30 29 28 26 26 24 22 20 19
5 6 6 5 4 5 6 7 6 6 6 4 3 3 3 3 4 5 5 5 4 3 5 7 8 8 9 9 8 8 7 6 5 4 5 5 6 6 8 9 11 13 15 17 19 20 20 19 18 18 20 20 21 23 25 26 30 33 34 34 33 32 32 32 32 33 34 34 33 33 33 34 34 33 32 31 31 30 30 29 27 26 25 23 21 20 19
6 7 7 5 5 6 6 4 4 5 5 4 3 3 3 4 5 5 4 4 4 4 5 6 7 8 8 8 7 7 7 6 5 5 6 6 6 5 6 7 10 12 15 17 18 17 18 19 20 20 20 20 21 22 24 25 27 30 32 33 33 32 32 32 32 33 33 33 33 34 34 33 33 32 32 31 31 31 30 29 28 26 25 24 22 21 20
8 7 6 5 5 7 7 6 5 6 7 7 7 6 5 6 7 7 6 6 6 5 3 3 4 5 5 4 5 5 4 5 5 5 6 6 5 5 6 8 10 11 11 13 13 12 12 13 16 18 20 21 22 22 23 24 26 28 30 32 32 32 32 32 32 33 34 34 34 34 33 33 33 33 33 32 32 32 30 29 28 26 26 24 22 21 21
9 10 9 7 8 9 9 10 11 11 11 10 10 10 9 8 7 7 8 8 8 6 3 1 1 2 2 3 3 4 4 5 6 7 7 6 6 6 8 10 11 11 11 11 12 13 13 12 12 13 17 20 21 23 23 24 25 27 29 31 32 32 32 32 33 33 34 34 34 34 34 34 34 34 34 34 33 32 31 30 29 28 26 25 23 22 21
7 8 8 9 9 9 10 12 15 15 13 10 9 10 10 9 8 7 8 8 8 7 5 3 2 2 3 4 4 5 6 6 6 7 7 7 7 9 13 15 16 15 15 16 17 17 17 16 14 14 15 17 19 21 22 23 24 26 28 30 32 33 33 33 33 33 33 34 34 34 35 35 34 34 34 33 32 31 31 30 29 28 27 25 24 23 22
4 4 5 7 8 8 8 11 13 15 15 13 11 10 9 9 8 8 8 8 9 8 7 6 4 3 4 5 5 6 6 6 6 7 7 6 7 10 13 15 14 11 12 14 15 16 17 17 16 16 16 16 17 19 21 22 23 25 27 30 31 32 33 33 32 33 33 33 34 35 36 35 33 32 32 31 31 31 30 29 28 28 27 26 25 24 23
5 5 6 7 7 8 8 8 9 11 14 15 13 11 10 9 9 9 9 9 9 8 7 7 6 5 6 6 7 7 7 7 8 7 7 7 7 7 8 10 11 10 9 10 10 11 12 13 15 16 16 16 17 18 19 21 23 25 27 29 31 32 32 32 32 33 34 34 35 36 36 35 34 32 31 30 31 30 29 28 28 27 27 26 25 24 23
6 6 6 7 7 8 9 8 8 9 11 13 13 12 11 10 10 10 9 8 8 7 7 6 6 5 5 6 8 8 8 8 8 8 8 9 9 8 8 10 11 11 11 13 13 14 14 15 15 16 16 17 17 18 19 21 23 25 26 28 31 32 32 32 32 33 33 33 34 35 35 35 35 34 32 30 30 30 29 28 28 28 28 27 26 25 23
6 6 7 6 6 7 9 9 7 7 9 11 12 11 11 11 11 10 9 9 9 8 8 7 6 6 6 7 8 8 8 8 8 9 11 12 12 12 14 16 17 16 17 20 21 20 20 19 18 18 18 18 18 19 19 21 23 25 26 28 30 31 32 32 32 32 32 32 34 35 35 35 35 34 33 32 32 31 30 31 30 30 30 28 26 24 23
7 8 7 7 7 7 8 8 8 7 7 8 9 9 10 11 12 11 11 11 11 10 10 10 9 9 9 10 10 10 11 11 12 12 14 14 11 9 10 12 12 12 14 16 17 18 18 18 18 18 18 18 18 20 21 22 24 25 27 28 29 30 31 31 32 32 32 33 34 35 35 35 35 35 35 34 34 33 32 32 32 31 29 28 25 23 22
8 8 8 7 8 8 8 8 7 6 5 4 5 7 9 11 11 11 11 10 10 10 10 10 11 11 11 11 11 11 11 12 12 11 10 9 7 7 7 8 10 12 15 17 19 19 19 18 17 17 17 17 18 20 22 24 25 26 27 28 29 30 30 31 32 32 32 33 34 35 35 35 35 35 34 34 33 32 32 31 30 29 28 26 24 23 22
7 8 8 8 7 7 7 6 5 4 4 4 4 4 7 10 11 10 10 9 8 9 9 9 10 10 10 11 12 13 14 14 12 11 11 12 12 14 15 17 18 19 20 21 21 21 20 19 18 18 18 18 18 20 22 24 25 27 28 29 29 29 30 30 31 31 32 33 34 35 34 34 34 33 33 32 31 30 29 29 28 27 26 25 23 22 22
6 7 7 7 7 6 6 5 5 6 7 6 4 4 7 10 11 10 8 6 7 8 9 9 9 9 9 10 11 13 15 16 15 12 10 10 11 12 13 14 16 18 18 19 19 19 19 18 18 18 18 19 20 21 23 24 25 27 28 29 29 29 30 30 30 30 31 32 33 33 33 32 32 32 31 31 30 29 28 27 26 26 25 24 23 22 22
6 6 6 6 6 6 6 6 6 6 6 4 4 5 6 9 10 9 6 5 8 10 10 9 9 8 8 8 9 10 11 11 11 9 8 7 9 12 15 17 19 20 21 21 21 20 18 17 18 18 18 19 21 22 23 24 25 27 28 29 29 29 29 29 29 29 30 32 32 32 32 32 32 32 31 30 29 28 27 27 26 25 24 23 23 23 23
5 5 5 5 5 6 5 5 4 4 3 3 5 6 6 9 10 8 6 9 12 13 12 11 10 9 8 7 8 8 8 9 11 14 15 16 17 20 21 22 21 20 19 19 20 19 17 17 18 18 18 19 21 22 23 24 25 26 27 28 28 28 28 28 29 29 30 32 32 33 32 32 31 30 30 29 28 27 27 26 25 24 24 23 23 23 23
5 5 4 4 4 4 3 2 1 2 4 5 7 7 7 8 8 8 10 12 14 14 14 14 14 11 9 9 9 9 9 10 12 15 18 19 20 20 20 20 19 18 17 18 19 18 17 16 17 17 18 18 20 21 22 23 24 25 26 26 26 26 27 27 27 28 29 30 31 31 31 30 28 28 28 27 27 26 26 25 25 24 23 23 23 23 23
3 3 3 4 4 4 4 4 3 4 5 6 7 8 8 8 9 10 12 12 13 14 15 16 15 12 11 11 11 10 9 10 11 13 15 16 17 17 17 17 16 16 16 17 17 17 16 16 16 16 16 17 18 19 21 22 23 24 24 25 25 25 25 26 26 27 28 29 29 29 28 27 27 26 26 26 25 25 24 24 24 23 23 23 23 22 22
3 3 4 5 5 6 5 4 2 3 5 7 7 7 8 9 9 10 10 10 10 11 13 14 15 14 11 9 10 11 11 11 13 14 14 15 16 16 15 15 15 15 15 16 16 15 14 14 14 14 15 15 16 18 19 20 22 23 23 24 24 24 24 25 25 26 26 26 26 26 26 25 25 25 25 25 24 24 24 23 23 23 23 22 22 22 22
Wind_Direction
201 166 165 167 169 192 201 196 205 209 196 191 206 225 219 178 202 241 223 182 207 229 246 254 254 239 237 263 268 247 180 160 163 161 172 189 198 198 197 198 194 190 191 191 194 196 194 190 187 184 182 181 180 181 181 180 180 180 180 179 177 176 175 173 171 169 167 165 163 160 158 157 157 157 157 156 156 155 155 155 154 153 152 150 149 145 141
208 201 188 183 184 192 197 202 206 205 207 210 216 229 226 212 231 244 230 222 231 222 229 249 264 276 248 255 271 159 156 165 174 181 192 202 206 205 203 201 196 195 195 193 195 195 194 192 187 183 182 182 182 182 181 181 181 181 181 180 177 176 174 172 170 168 166 164 161 160 159 158 158 158 157 157 157 156 156 156 155 153 152 151 149 146 141
218 223 183 203 211 203 203 212 211 208 210 214 220 229 230 229 241 248 252 257 254 241 238 256 272 293 273 261 227 182 182 182 180 193 209 212 215 214 208 202 197 196 195 194 195 195 196 195 189 185 185 184 184 184 183 183 183 181 181 180 177 175 174 171 169 167 165 163 161 161 160 159 159 159 158 158 158 158 157 156 154 153 154 152 148 146 143
228 211 162 197 206 230 248 236 223 214 211 214 220 221 218 224 234 236 242 254 255 243 252 261 255 246 250 260 242 204 197 190 186 201 214 216 219 215 207 199 195 197 197 196 197 198 197 194 190 189 187 185 186 187 186 185 183 180 180 179 177 175 173 170 168 166 165 163 162 162 161 161 160 160 160 159 159 159 158 156 155 155 155 153 148 146 145
230 182 153 153 107 34 262 241 216 210 216 219 224 226 223 222 221 219 232 241 224 190 216 235 238 221 221 243 235 199 201 203 201 212 217 219 222 213 203 201 200 202 203 201 200 199 196 194 193 193 190 188 189 189 186 184 181 179 179 178 177 175 172 170 168 167 166 165 164 163 163 162 162 161 161 160 160 161 158 157 157 157 154 153 150 148 149
203 180 126 109 118 229 252 225 179 193 206 209 216 226 226 223 220 224 239 240 179 188 216 225 225 209 210 234 231 197 194 191 202 223 226 227 226 213 204 206 205 206 206 205 203 201 200 198 196 194 193 192 191 188 185 183 181 180 179 178 177 175 172 171 170 168 168 167 165 164 163 163 163 162 162 161 161 161 160 158 159 158 155 154 152 151 150
168 147 111 133 209 230 251 351 167 193 202 204 212 223 226 225 225 229 241 241 204 207 223 226 225 219 225 257 258 216 205 191 197 218 228 229 223 212 210 211 211 211 205 201 202 202 203 201 196 194 194 192 190 187 185 184 182 181 180 179 178 176 174 172 171 170 170 169 167 165 164 164 163 163 163 162 162 161 160 160 160 159 158 156 155 153 148
139 130 158 194 232 271 287 296 264 179 180 183 208 237 242 237 228 226 233 234 225 224 231 240 259 239 252 300 276 232 220 209 205 214 223 224 215 209 211 208 206 206 203 201 202 202 200 197 194 193 192 190 187 185 184 183 181 180 180 179 178 177 176 175 174 173 172 170 168 166 165 165 164 163 164 163 163 162 161 161 161 160 160 158 156 154 148
129 143 209 236 307 304 265 235 204 156 149 154 176 226 248 238 223 218 224 231 236 234 220 199 185 203 354 326 280 244 224 217 219 221 223 223 217 216 219 216 214 212 208 206 204 200 195 193 193 192 189 187 185 182 181 182 181 181 181 180 180 179 178 177 175 174 174 172 170 168 167 166 165 165 165 164 163 163 163 162 160 161 161 158 155 155 153
106 127 221 266 269 262 241 194 185 185 174 166 166 199 245 236 216 210 210 218 229 227 205 179 156 113 53 275 265 252 228 217 222 229 236 237 231 226 222 218 218 214 209 207 204 198 193 192 193 191 187 185 182 180 180 182 181 181 182 183 182 181 180 179 177 176 176 175 172 170 168 168 167 166 166 165 164 165 166 164 160 160 160 159 155 151 150
139 158 198 214 229 248 211 169 187 185 161 135 118 182 260 235 202 199 201 210 220 214 200 181 150 139 210 241 249 245 229 223 219 221 237 243 235 230 223 215 212 207 201 199 196 193 192 191 191 190 187 184 181 180 181 181 181 183 185 185 185 183 181 179 178 177 177 176 175 172 170 170 170 168 167 166 164 164 166 164 160 159 158 159 155 146 144
175 180 208 224 235 255 217 189 184 167 148 121 106 252 261 221 193 191 185 198 212 204 191 176 163 185 214 232 243 236 231 250 227 214 235 243 230 225 220 213 208 199 191 187 185 189 193 193 191 189 185 182 182 182 181 181 184 186 187 187 186 184 182 180 179 178 178 177 176 174 172 171 171 170 169 167 165 164 164 163 160 157 156 156 154 147 145
174 185 216 253 264 240 222 205 174 155 135 116 163 225 228 174 192 188 173 190 206 200 186 178 191 208 210 221 264 276 281 271 254 257 267 240 221 220 213 203 197 189 187 189 191 193 195 192 188 185 183 181 182 182 181 184 188 190 189 188 186 184 182 180 179 178 178 177 177 175 174 173 171 170 169 168 167 165 164 162 160 158 156 155 153 150 146
163 183 207 264 272 229 175 147 175 163 137 171 218 221 148 149 181 184 189 200 201 188 183 192 209 215 188 215 255 271 268 235 243 321 357 137 165 192 193 190 188 183 185 190 192 192 192 189 187 185 183 181 182 183 185 189 191 190 188 187 186 183 182 180 179 178 177 177 177 176 176 175 172 169 167 167 168 167 164 163 161 159 157 154 152 148 141
146 158 184 241 263 214 136 119 133 223 197 207 214 152 72 173 173 173 204 210 184 173 187 206 217 210 169 227 247 262 275 258 250 280 138 134 144 155 164 179 184 181 180 183 185 187 188 188 187 184 183 183 183 184 188 190 190 188 187 186 184 182 180 179 178 177 177 177 178 178 176 176 174 170 167 167 168 168 166 164 162 159 156 154 153 150 146
148 172 202 216 209 171 148 140 172 211 205 192 167 139 147 225 190 174 208 217 196 189 190 198 206 195 182 218 237 247 251 242 224 210 162 135 147 155 161 176 181 179 176 175 177 181 184 185 186 185 185 184 183 186 189 189 187 186 185 183 181 179 178 177 177 177 178 178 180 179 177 176 175 172 170 169 168 168 168 167 164 160 157 157 157 152 146
178 197 218 217 158 165 176 162 195 207 192 134 137 145 139 203 201 182 203 216 202 194 184 174 180 191 200 208 211 216 224 215 196 183 155 144 151 151 152 163 172 175 174 169 168 173 180 185 187 187 188 187 185 186 188 187 186 184 182 181 179 178 178 178 178 178 178 179 179 179 177 178 179 177 174 173 171 168 168 169 166 162 157 156 158 155 148
249 265 228 171 110 209 213 233 277 219 193 154 145 136 133 219 204 184 203 210 191 185 177 164 182 204 201 196 206 217 218 198 173 155 140 139 145 148 149 155 164 169 168 166 167 169 176 184 188 189 191 191 189 187 187 186 186 184 182 180 179 178 178 178 178 178 178 178 178 179 179 180 181 181 179 177 174 171 170 169 167 163 159 156 154 154 155
196 247 200 151 160 207 206 230 299 274 227 219 169 155 196 223 202 198 224 210 164 176 180 179 201 210 188 183 198 203 193 189 176 154 146 149 153 160 162 161 165 167 165 166 170 171 176 184 188 189 191 193 193 190 187 185 185 184 182 180 179 178 178 178 178 179 180 180 180 180 180 181 181 181 181 181 179 176 175 173 169 163 161 160 160 161 164
178 214 209 163 256 240 212 229 268 250 225 214 195 181 190 158 127 146 220 149 148 171 184 184 194 195 185 189 193 185 184 188 173 161 164 163 162 169 171 169 172 173 171 173 175 177 179 183 186 189 190 192 195 193 190 188 186 184 183 182 180 179 179 179 180 181 182 183 182 182 182 182 182 182 182 182 183 182 181 182 180 173 168 168 171 173 173
191 292 237 128 53 3 272 241 236 237 218 175 152 113 99 106 104 100 76 72 146 165 170 166 163 180 199 197 176 171 180 175 167 174 175 171 171 173 174 176 179 180 180 181 180 180 182 183 185 188 190 192 195 195 192 190 187 184 182 182 181 181 181 181 182 183 184 184 185 184 183 182 181 182 183 184 184 183 182 183 186 184 177 176 179 180 177
217 216 183 168 145 179 229 225 219 218 188 146 142 135 125 133 144 132 101 57 58 95 132 153 156 176 200 187 159 170 182 177 177 177 169 167 173 175 175 179 183 187 189 188 184 182 184 185 185 187 191 192 194 194 193 190 188 186 183 182 182 182 182 183 184 184 185 186 186 186 184 182 179 176 177 181 184 184 181 179 182 184 182 182 183 180 176
216 196 181 184 177 185 214 210 195 184 162 147 155 162 160 165 170 145 122 105 85 42 16 64 155 171 189 179 164 164 172 177 179 176 172 173 176 178 180 180 181 188 193 192 190 189 188 188 189 189 192 193 192 193 194 192 191 189 186 183 182 183 185 186 187 187 188 187 186 185 185 184 181 175 171 172 177 181 177 174 178 183 181 179 178 176 176
216 198 183 182 172 162 202 191 170 165 164 156 157 159 154 155 158 140 118 116 130 125 57 29 158 176 177 175 167 161 165 172 173 174 178 181 182 181 183 183 184 191 195 196 196 195 192 191 191 191 193 195 196 196 196 195 193 192 191 188 187 187 189 189 190 190 190 189 188 187 185 185 183 179 175 171 169 171 169 166 174 182 182 181 181 177 179
196 177 157 159 138 115 132 127 119 141 157 146 143 148 146 148 153 142 123 115 133 144 134 115 89 137 158 162 157 153 154 162 170 172 170 175 183 184 184 189 194 198 200 201 200 200 198 196 195 196 197 199 199 199 198 197 196 195 195 195 194 192 192 191 191 192 192 191 191 191 190 188 187 185 185 181 175 171 167 165 175 187 189 190 189 183 183
133 117 100 87 71 81 112 101 95 158 174 136 123 134 138 132 132 127 121 118 121 126 126 119 95 88 115 140 143 138 134 145 162 170 168 172 182 187 190 197 200 201 203 205 204 205 205 202 200 200 201 202 203 203 201 200 199 199 200 200 200 199 197 196 196 196 195 195 195 195 194 193 192 192 193 193 187 180 174 173 181 190 193 195 193 188 189
135 130 111 93 73 138 200 179 149 158 158 128 117 121 113 107 106 100 89 85 85 86 89 99 102 92 91 109 119 120 128 143 157 171 180 187 194 197 199 200 199 201 205 207 208 209 209 207 205 206 207 208 208 207 205 204 203 202 202 203 204 204 202 201 201 201 200 199 198 197 196 196 197 197 198 197 194 190 188 188 191 192 193 194 194 192 193
152 154 108 130 166 187 194 164 119 119 115 109 118 125 118 102 93 89 84 73 59 59 67 78 92 96 99 110 114 114 125 141 159 182 197 203 205 203 199 196 198 204 207 209 212 213 211 211 211 212 214 214 212 210 209 207 205 204 205 205 206 206 206 205 205 204 202 200 200 200 199 200 201 201 200 199 198 197 198 199 197 194 192 192 192 194 196
174 335 23 88 137 135 120 106 107 106 97 97 106 113 115 107 97 97 99 77 46 63 75 71 77 92 112 131 130 123 128 151 189 207 211 212 206 196 191 192 196 203 209 213 216 216 216 216 218 218 220 220 217 214 213 210 208 207 207 207 208 208 208 208 206 204 202 202 201 201 202 202 202 201 200 200 199 198 199 199 197 194 193 192 193 195 197
32 74 90 93 105 115 117 120 121 115 115 118 111 100 102 111 116 126 129 99 92 132 122 94 82 88 109 137 144 144 155 184 214 221 218 210 200 191 190 187 181 188 209 219 221 221 222 223 224 226 227 225 221 217 215 213 211 210 209 210 211 211 211 210 208 205 204 203 203 202 202 202 201 200 199 198 198 198 199 198 196 194 194 195 195 197 198
97 97 110 110 110 116 119 124 127 124 123 118 110 102 98 107 122 146 158 159 185 182 140 109 102 107 129 148 153 157 164 179 205 216 212 207 204 201 201 198 193 200 220 229 231 230 230 232 234 236 235 231 225 221 218 215 213 212 212 212 213 214 215 214 211 209 207 205 204 202 202 201 200 199 198 197 196 197 197 196 195 196 197 198 200 201 201
102 89 92 98 104 111 117 126 134 134 133 129 135 154 163 142 136 148 157 161 176 168 130 116 118 130 139 143 147 154 161 171 187 199 204 208 210 211 213 217 221 231 243 251 251 245 240 240 244 245 242 236 231 226 222 219 217 215 215 215 214 215 216 214 212 211 209 206 205 204 203 202 200 199 198 198 198 198 198 198 198 198 199 202 205 204 202
121 119 127 134 130 128 136 149 152 152 161 169 165 170 179 151 119 124 136 144 141 131 131 141 137 130 136 146 157 163 164 165 186 211 221 224 224 226 229 232 236 241 248 255 260 258 253 252 254 253 249 243 238 233 228 224 222 220 219 218 216 215 215 214 213 211 209 207 207 207 205 204 202 201 202 202 202 202 203 202 201 201 203 206 207 206 205
132 142 156 154 139 133 147 164 170 167 171 181 172 142 134 118 110 120 139 143 135 131 155 162 155 150 155 164 169 166 161 163 212 242 245 248 249 245 242 241 243 247 250 254 257 259 261 260 258 257 254 250 246 240 235 230 227 225 223 221 219 217 216 215 213 211 210 209 209 208 207 206 205 206 206 206 205 205 205 204 203 203 205 207 206 205 207
80 90 101 107 98 105 132 152 164 167 170 179 181 151 136 138 139 138 138 134 122 118 138 148 153 159 165 167 169 175 187 207 237 269 289 299 295 276 258 252 250 252 255 257 259 260 262 262 259 258 257 254 249 246 241 236 232 229 225 223 222 220 218 217 215 214 214 213 211 209 208 208 208 208 208 207 207 207 206 205 204 205 207 208 206 205 208
51 77 85 73 61 71 80 94 130 150 151 147 139 129 119 113 111 110 108 97 89 100 126 141 150 160 167 174 183 195 213 237 267 299 315 316 309 294 274 261 257 258 264 269 272 272 270 266 263 260 258 255 252 249 246 241 236 232 228 225 224 222 220 220 219 218 217 215 214 213 212 211 210 210 210 210 210 209 207 207 206 207 209 209 207 206 207
39 65 79 63 59 66 56 42 59 92 95 85 79 81 78 72 71 77 85 81 72 73 101 135 152 167 183 207 224 233 254 278 296 307 308 305 299 288 273 262 255 252 258 272 286 297 297 286 274 265 259 257 255 253 250 246 241 236 230 227 225 223 222 221 221 221 220 219 218 216 214 213 212 212 211 211 211 210 209 208 208 210 211 211 209 208 208
52 60 70 70 69 69 61 52 60 77 87 84 74 67 64 61 60 68 77 69 53 43 51 101 186 222 259 287 293 299 309 313 312 308 303 298 290 273 258 254 252 250 254 272 291 304 309 306 293 275 265 262 260 258 254 250 245 240 234 230 227 225 224 223 223 223 222 220 219 218 217 215 213 212 211 212 211 210 209 209 209 211 213 212 210 211 211
59 54 61 70 72 73 72 67 64 66 76 86 80 64 55 53 56 66 69 59 43 32 26 16 343 314 321 328 327 329 335 337 331 322 313 303 288 274 269 270 269 269 272 279 285 289 292 294 292 282 274 269 265 262 259 255 249 243 239 234 231 228 227 226 226 226 224 222 220 219 218 215 214 213 213 213 212 211 211 211 212 214 216 214 213 214 215
60 45 47 61 65 63 65 66 63 62 67 74 73 60 47 45 54 61 57 44 33 25 17 12 9 6 0 353 343 337 338 338 334 329 323 307 288 281 283 287 288 288 288 288 288 288 288 288 285 281 278 274 268 264 261 257 252 247 242 238 234 232 231 230 228 227 225 222 220 220 218 216 214 214 214 214 213 213 213 213 215 217 218 217 216 216 218
48 38 41 52 54 50 53 65 72 69 64 62 59 55 50 49 54 55 45 32 26 25 22 19 15 8 358 346 331 322 321 320 318 317 311 296 284 282 286 290 294 303 312 314 312 307 302 296 291 288 285 279 272 268 264 259 254 249 245 241 238 235 233 232 231 229 226 222 221 221 219 217 216 217 217 216 216 216 215 216 219 221 222 221 219 218 220
38 38 49 55 49 45 51 61 72 71 60 51 50 54 55 54 57 58 48 35 29 30 30 28 20 5 348 333 320 315 314 313 309 303 292 279 271 265 269 279 289 299 306 308 308 307 304 302 300 297 293 287 281 275 268 261 255 251 247 244 241 238 235 234 232 231 229 226 224 222 220 218 217 218 217 217 218 218 218 220 222 224 224 223 221 221 224
38 43 57 58 50 52 56 58 65 72 58 45 47 54 54 49 50 49 42 34 30 25 21 18 15 5 351 339 331 326 324 322 319 312 299 287 275 263 263 273 283 288 290 291 294 294 293 292 292 291 290 288 285 279 271 263 257 252 249 246 243 240 237 235 234 232 230 228 226 224 221 218 217 217 217 219 220 221 222 223 225 226 226 225 225 225 228
45 49 58 57 53 55 54 49 51 57 47 38 46 55 50 43 41 35 27 23 21 16 10 5 1 358 353 347 343 338 332 329 329 325 318 312 307 296 283 281 286 290 291 293 295 296 295 294 292 289 286 283 280 277 270 263 257 253 250 247 244 241 238 236 234 233 231 229 227 225 222 220 220 221 222 222 223 223 224 226 227 228 228 228 229 231 233
47 50 56 57 55 50 41 33 31 26 16 29 61 59 41 32 30 24 17 11 7 6 3 357 351 350 349 342 335 329 322 319 318 316 310 305 307 311 307 297 292 293 296 296 297 297 297 297 296 293 288 282 277 272 267 262 258 254 251 248 245 243 240 237 236 234 233 231 228 226 224 224 225 225 225 225 225 226 227 229 230 231 231 231 233 236 238
49 48 48 49 46 36 26 25 25 20 27 57 78 50 17 10 9 9 8 3 356 356 355 347 342 343 339 331 324 321 316 311 306 298 288 279 276 281 287 289 290 293 296 296 295 294 294 294 293 291 288 283 277 270 264 260 257 254 251 248 245 243 241 240 238 237 235 232 230 228 227 227 227 227 227 227 227 228 230 232 233 233 234 236 238 241 242
53 47 41 40 37 32 32 43 54 58 61 63 44 1 352 352 352 357 4 3 352 348 342 333 331 331 327 321 319 319 318 316 315 311 301 283 272 275 283 290 295 298 300 297 295 294 293 291 287 284 281 280 277 270 264 260 256 252 250 248 246 244 243 242 240 238 235 232 230 228 226 226 227 227 227 228 229 231 233 235 235 235 237 240 243 244 244
54 46 42 42 40 42 52 66 72 73 70 48 359 347 346 341 341 351 3 354 342 339 337 331 330 329 322 313 306 304 306 308 307 306 305 292 279 282 290 295 297 298 298 295 293 292 291 288 285 280 277 276 275 270 264 260 255 252 250 248 247 246 245 243 241 239 235 231 228 227 226 226 227 227 227 229 232 235 236 237 237 238 240 244 245 246 247
61 58 59 59 49 43 53 70 80 76 44 351 339 342 340 337 341 350 353 341 337 338 338 336 334 331 326 318 308 300 293 282 273 277 286 291 290 291 293 295 296 297 296 294 293 292 291 288 284 280 276 273 271 268 264 260 256 253 251 250 248 248 247 245 243 240 235 231 229 228 228 228 228 229 230 233 236 238 238 238 239 241 245 247 248 248 248
56 56 54 43 27 20 25 32 20 346 336 338 342 346 344 342 341 340 338 338 337 335 332 331 332 330 329 328 323 313 302 288 278 280 287 293 294 293 295 296 297 297 297 295 295 295 293 289 284 281 277 274 270 266 262 259 257 254 252 250 249 249 248 247 244 240 235 232 230 230 230 231 232 233 235 238 239 238 238 239 242 245 248 249 249 249 250
31 28 16 5 358 351 345 338 334 341 348 350 347 346 345 342 332 326 328 334 335 329 325 325 326 324 322 323 323 320 312 302 297 296 297 298 298 297 296 297 298 299 299 298 298 297 295 291 286 282 278 274 270 266 262 258 256 254 252 251 250 249 248 246 242 238 235 234 234 234 234 234 235 237 239 241 240 239 239 242 245 248 249 250 250 251 252
1 3 1 357 351 348 348 350 2 9 3 353 341 336 337 332 321 315 317 319 318 314 311 308 308 310 311 311 314 318 317 311 308 307 308 307 305 302 300 299 300 301 300 300 299 297 294 288 284 281 277 273 269 264 260 257 254 252 252 251 251 250 248 245 243 241 240 239 238 238 239 240 241 243 243 242 241 241 242 245 247 249 250 251 252 253 253